Погода в Ивановке

Украина / Кировоградская область     48°24′27″N   33°19′59″E
темп.,
°C
ветер,
м/с
пор.,
м/с
влажн.,
%
обл.,
%
осадки,
мм/ч
давл.,
гПа
погр.,
м
20 апреля, вт
вт2000:00+7св347270 0.0 101390
03:00+6св337946 0.0 101137
06:00+6ссв3586100 0.0 1009103
09:00+10ссв4671100 0.0 1008404
12:00+13ссв5556100 0.0 10061353
15:00+13ссв4657100 0.1 10041355
18:00+11ссз71066100 0.2 1004788
21:00+9сз4979100 0.2 1006267
21 апреля, ср
ср2100:00+7з5107790 0.0 1007254
03:00+6з4987100 0.0 1009218
06:00+5з36925 0.0 1011132
09:00+10з46674 0.0 1013601
12:00+14зюз574659 0.1 10132015
15:00+13зюз685298 0.9 10131690
18:00+14з575322 1.1 10141542
21:00+9з127169 1.1 101611
22 апреля, чт
чт2200:00+8ююз3377100 0.0 101747
03:00+7ююз379242 0.0 1018133
06:00+6ююз35927 0.0 101991
09:00+12ююз56675 0.0 1019443
12:00+17ююз56464 0.2 10191873
15:00+18ююз5637100 0.2 10182553
18:00+17ююз56466 0.0 10181642
21:00+12ю486420 0.0 1019136
23 апреля, пт
пт2300:00+9ю49802 0.0 1019184
03:00+8ю5108510 0.0 1019234
06:00+7ю51187100 0.1 1018284
09:00+13ю7116493 0.1 1018524
12:00+17ююз91245100 0.0 10171870
15:00+17ююз91247100 0.0 10161850
18:00+15юз81257100 0.1 10151597
21:00+11зюз51077100 0.6 1016608
24 апреля, сб
сб2400:00+6ссз71091100 2.8 1016461
03:00+6ссз51085100 5.6 1017756
06:00+4зсз38950 0.0 1018292
09:00+8сз57604 0.0 1019841
12:00+11зсз57415 0.0 10191801
15:00+12з6839100 0.0 10182373
18:00+10зсз7858100 0.3 10191385
21:00+7зсз486246 0.4 1020293